Year,Month,Day,Hour,Minute,Value (Times are PST for temperature in C)
2017,04,20,00,00,7.00
2017,04,20,00,01,7.00
2017,04,20,00,02,7.00
2017,04,20,00,03,7.00
2017,04,20,00,04,7.00
2017,04,20,00,05,7.00
2017,04,20,00,06,7.00
2017,04,20,00,07,7.00
2017,04,20,00,08,7.00
2017,04,20,00,09,7.00
2017,04,20,00,10,7.00
2017,04,20,00,11,7.00
2017,04,20,00,12,7.00
2017,04,20,00,13,7.00
2017,04,20,00,14,7.00
2017,04,20,00,15,7.00
2017,04,20,00,16,6.90
2017,04,20,00,17,6.90
2017,04,20,00,18,6.90
2017,04,20,00,19,6.90
2017,04,20,00,20,6.90
2017,04,20,00,21,6.90
2017,04,20,00,22,6.90
2017,04,20,00,23,6.90
2017,04,20,00,24,6.90
2017,04,20,00,25,6.80
2017,04,20,00,26,6.80
2017,04,20,00,27,6.80
2017,04,20,00,28,6.80
2017,04,20,00,29,6.80
2017,04,20,00,30,6.80
2017,04,20,00,31,6.80
2017,04,20,00,32,6.80
2017,04,20,00,33,6.80
2017,04,20,00,34,6.80
2017,04,20,00,35,6.80
2017,04,20,00,36,6.80
2017,04,20,00,37,6.80
2017,04,20,00,38,6.80
2017,04,20,00,39,6.80
2017,04,20,00,40,6.80
2017,04,20,00,41,6.70
2017,04,20,00,42,6.70
2017,04,20,00,43,6.70
2017,04,20,00,44,6.70
2017,04,20,00,45,6.70
2017,04,20,00,46,6.70
2017,04,20,00,47,6.70
2017,04,20,00,48,6.70
2017,04,20,00,49,6.70
2017,04,20,00,50,6.60
2017,04,20,00,51,6.60
2017,04,20,00,52,6.60
2017,04,20,00,53,6.60
2017,04,20,00,54,6.60
2017,04,20,00,55,6.60
2017,04,20,00,56,6.60
2017,04,20,00,57,6.60
2017,04,20,00,58,6.60
2017,04,20,00,59,6.60
2017,04,20,01,00,6.60
2017,04,20,01,01,6.60
2017,04,20,01,02,6.50
2017,04,20,01,03,6.50
2017,04,20,01,04,6.50
2017,04,20,01,05,6.50
2017,04,20,01,06,6.50
2017,04,20,01,07,6.50
2017,04,20,01,08,6.40
2017,04,20,01,09,6.40
2017,04,20,01,10,6.40
2017,04,20,01,11,6.40
2017,04,20,01,12,6.40
2017,04,20,01,13,6.40
2017,04,20,01,14,6.40
2017,04,20,01,15,6.40
2017,04,20,01,16,6.40
2017,04,20,01,17,6.40
2017,04,20,01,18,6.40
2017,04,20,01,19,6.40
2017,04,20,01,20,6.30
2017,04,20,01,21,6.30
2017,04,20,01,22,6.30
2017,04,20,01,23,6.30
2017,04,20,01,24,6.30
2017,04,20,01,25,6.30
2017,04,20,01,26,6.30
2017,04,20,01,27,6.30
2017,04,20,01,28,6.30
2017,04,20,01,29,6.30
2017,04,20,01,30,6.30
2017,04,20,01,31,6.30
2017,04,20,01,32,6.30
2017,04,20,01,33,6.30
2017,04,20,01,34,6.30
2017,04,20,01,35,6.30
2017,04,20,01,36,6.30
2017,04,20,01,37,6.30
2017,04,20,01,38,6.30
2017,04,20,01,39,6.30
2017,04,20,01,40,6.30
2017,04,20,01,41,6.30
2017,04,20,01,42,6.30
2017,04,20,01,43,6.30
2017,04,20,01,44,6.30
2017,04,20,01,45,6.30
2017,04,20,01,46,6.30
2017,04,20,01,47,6.30
2017,04,20,01,48,6.30
2017,04,20,01,49,6.30
2017,04,20,01,50,6.30
2017,04,20,01,51,6.30
2017,04,20,01,52,6.30
2017,04,20,01,53,6.30
2017,04,20,01,54,6.30
2017,04,20,01,55,6.30
2017,04,20,01,56,6.30
2017,04,20,01,57,6.30
2017,04,20,01,58,6.30
2017,04,20,01,59,6.30
2017,04,20,02,00,6.30
2017,04,20,02,01,6.30
2017,04,20,02,02,6.30
2017,04,20,02,03,6.30
2017,04,20,02,04,6.30
2017,04,20,02,05,6.30
2017,04,20,02,06,6.30
2017,04,20,02,07,6.30
2017,04,20,02,08,6.30
2017,04,20,02,09,6.30
2017,04,20,02,10,6.30
2017,04,20,02,11,6.30
2017,04,20,02,12,6.30
2017,04,20,02,13,6.30
2017,04,20,02,14,6.40
2017,04,20,02,15,6.40
2017,04,20,02,16,6.40
2017,04,20,02,17,6.40
2017,04,20,02,18,6.30
2017,04,20,02,19,6.40
2017,04,20,02,20,6.40
2017,04,20,02,21,6.40
2017,04,20,02,22,6.40
2017,04,20,02,23,6.40
2017,04,20,02,24,6.40
2017,04,20,02,25,6.40
2017,04,20,02,26,6.30
2017,04,20,02,27,6.30
2017,04,20,02,28,6.30
2017,04,20,02,29,6.30
2017,04,20,02,30,6.30
2017,04,20,02,31,6.30
2017,04,20,02,32,6.30
2017,04,20,02,33,6.30
2017,04,20,02,34,6.30
2017,04,20,02,35,6.30
2017,04,20,02,36,6.30
2017,04,20,02,37,6.30
2017,04,20,02,38,6.30
2017,04,20,02,39,6.30
2017,04,20,02,40,6.30
2017,04,20,02,41,6.30
2017,04,20,02,42,6.30
2017,04,20,02,43,6.30
2017,04,20,02,44,6.30
2017,04,20,02,45,6.30
2017,04,20,02,46,6.30
2017,04,20,02,47,6.40
2017,04,20,02,48,6.40
2017,04,20,02,49,6.40
2017,04,20,02,50,6.30
2017,04,20,02,51,6.30
2017,04,20,02,52,6.30
2017,04,20,02,53,6.30
2017,04,20,02,54,6.30
2017,04,20,02,55,6.30
2017,04,20,02,56,6.30
2017,04,20,02,57,6.30
2017,04,20,02,58,6.30
2017,04,20,02,59,6.30
2017,04,20,03,00,6.30
2017,04,20,03,01,6.30
2017,04,20,03,02,6.30
2017,04,20,03,03,6.30
2017,04,20,03,04,6.30
2017,04,20,03,05,6.30
2017,04,20,03,06,6.30
2017,04,20,03,07,6.30
2017,04,20,03,08,6.30
2017,04,20,03,09,6.30
2017,04,20,03,10,6.20
2017,04,20,03,11,6.20
2017,04,20,03,12,6.20
2017,04,20,03,13,6.20
2017,04,20,03,14,6.20
2017,04,20,03,15,6.20
2017,04,20,03,16,6.10
2017,04,20,03,17,6.10
2017,04,20,03,18,6.00
2017,04,20,03,19,6.00
2017,04,20,03,20,6.00
2017,04,20,03,21,6.00
2017,04,20,03,22,5.90
2017,04,20,03,23,5.90
2017,04,20,03,24,5.90
2017,04,20,03,25,5.90
2017,04,20,03,26,5.90
2017,04,20,03,27,5.90
2017,04,20,03,28,5.90
2017,04,20,03,29,5.90
2017,04,20,03,30,5.90
2017,04,20,03,31,5.90
2017,04,20,03,32,5.90
2017,04,20,03,33,5.90
2017,04,20,03,34,5.90
2017,04,20,03,35,5.80
2017,04,20,03,36,5.80
2017,04,20,03,37,5.80
2017,04,20,03,38,5.80
2017,04,20,03,39,5.80
2017,04,20,03,40,5.80
2017,04,20,03,41,5.80
2017,04,20,03,42,5.80
2017,04,20,03,43,5.80
2017,04,20,03,44,5.70
2017,04,20,03,45,5.70
2017,04,20,03,46,5.70
2017,04,20,03,47,5.70
2017,04,20,03,48,5.70
2017,04,20,03,49,5.70
2017,04,20,03,50,5.70
2017,04,20,03,51,5.70
2017,04,20,03,52,5.70
2017,04,20,03,53,5.70
2017,04,20,03,54,5.70
2017,04,20,03,55,5.70
2017,04,20,03,56,5.70
2017,04,20,03,57,5.60
2017,04,20,03,58,5.60
2017,04,20,03,59,5.60
2017,04,20,04,00,5.60
2017,04,20,04,01,5.60
2017,04,20,04,02,5.60
2017,04,20,04,03,5.60
2017,04,20,04,04,5.60
2017,04,20,04,05,5.60
2017,04,20,04,06,5.50
2017,04,20,04,07,5.50
2017,04,20,04,08,5.50
2017,04,20,04,09,5.40
2017,04,20,04,10,5.40
2017,04,20,04,11,5.40
2017,04,20,04,12,5.40
2017,04,20,04,13,5.40
2017,04,20,04,14,5.30
2017,04,20,04,15,5.30
2017,04,20,04,16,5.30
2017,04,20,04,17,5.30
2017,04,20,04,18,5.30
2017,04,20,04,19,5.30
2017,04,20,04,20,5.30
2017,04,20,04,21,5.30
2017,04,20,04,22,5.20
2017,04,20,04,23,5.20
2017,04,20,04,24,5.20
2017,04,20,04,25,5.20
2017,04,20,04,26,5.20
2017,04,20,04,27,5.20
2017,04,20,04,28,5.20
2017,04,20,04,29,5.20
2017,04,20,04,30,5.20
2017,04,20,04,31,5.20
2017,04,20,04,32,5.10
2017,04,20,04,33,5.20
2017,04,20,04,34,5.10
2017,04,20,04,35,5.10
2017,04,20,04,36,5.10
2017,04,20,04,37,5.10
2017,04,20,04,38,5.10
2017,04,20,04,39,5.10
2017,04,20,04,40,5.10
2017,04,20,04,41,5.10
2017,04,20,04,42,5.10
2017,04,20,04,43,5.10
2017,04,20,04,44,5.10
2017,04,20,04,45,5.10
2017,04,20,04,46,5.10
2017,04,20,04,47,5.10
2017,04,20,04,48,5.10
2017,04,20,04,49,5.10
2017,04,20,04,50,5.10
2017,04,20,04,51,5.10
2017,04,20,04,52,5.00
2017,04,20,04,53,5.00
2017,04,20,04,54,5.00
2017,04,20,04,55,5.00
2017,04,20,04,56,5.00
2017,04,20,04,57,5.00
2017,04,20,04,58,5.00
2017,04,20,04,59,5.00
2017,04,20,05,00,5.00
2017,04,20,05,01,5.00
2017,04,20,05,02,5.00
2017,04,20,05,03,5.00
2017,04,20,05,04,5.00
2017,04,20,05,05,5.00
2017,04,20,05,06,4.90
2017,04,20,05,07,4.90
2017,04,20,05,08,4.90
2017,04,20,05,09,4.90
2017,04,20,05,10,4.90
2017,04,20,05,11,4.90
2017,04,20,05,12,4.90
2017,04,20,05,13,4.90
2017,04,20,05,14,4.80
2017,04,20,05,15,4.80
2017,04,20,05,16,4.80
2017,04,20,05,17,4.80
2017,04,20,05,18,4.80
2017,04,20,05,19,4.70
2017,04,20,05,20,4.70
2017,04,20,05,21,4.70
2017,04,20,05,22,4.70
2017,04,20,05,23,4.60
2017,04,20,05,24,4.60
2017,04,20,05,25,4.60
2017,04,20,05,26,4.50
2017,04,20,05,27,4.50
2017,04,20,05,28,4.50
2017,04,20,05,29,4.40
2017,04,20,05,30,4.40
2017,04,20,05,31,4.40
2017,04,20,05,32,4.40
2017,04,20,05,33,4.30
2017,04,20,05,34,4.30
2017,04,20,05,35,4.30
2017,04,20,05,36,4.30
2017,04,20,05,37,4.30
2017,04,20,05,38,4.30
2017,04,20,05,39,4.30
2017,04,20,05,40,4.20
2017,04,20,05,41,4.20
2017,04,20,05,42,4.20
2017,04,20,05,43,4.20
2017,04,20,05,44,4.20
2017,04,20,05,45,4.20
2017,04,20,05,46,4.20
2017,04,20,05,47,4.10
2017,04,20,05,48,4.10
2017,04,20,05,49,4.00
2017,04,20,05,50,3.90
2017,04,20,05,51,3.90
2017,04,20,05,52,3.80
2017,04,20,05,53,3.80
2017,04,20,05,54,3.80
2017,04,20,05,55,3.80
2017,04,20,05,56,3.70
2017,04,20,05,57,3.70
2017,04,20,05,58,3.70
2017,04,20,05,59,3.70
2017,04,20,06,00,3.70
2017,04,20,06,01,3.70
2017,04,20,06,02,3.70
2017,04,20,06,03,3.60
2017,04,20,06,04,3.60
2017,04,20,06,05,3.60
2017,04,20,06,06,3.60
2017,04,20,06,07,3.60
2017,04,20,06,08,3.60
2017,04,20,06,09,3.60
2017,04,20,06,10,3.60
2017,04,20,06,11,3.50
2017,04,20,06,12,3.50
2017,04,20,06,13,3.50
2017,04,20,06,14,3.50
2017,04,20,06,15,3.50
2017,04,20,06,16,3.50
2017,04,20,06,17,3.50
2017,04,20,06,18,3.50
2017,04,20,06,19,3.60
2017,04,20,06,20,3.60
2017,04,20,06,21,3.60
2017,04,20,06,22,3.60
2017,04,20,06,23,3.60
2017,04,20,06,24,3.50
2017,04,20,06,25,3.50
2017,04,20,06,26,3.50
2017,04,20,06,27,3.50
2017,04,20,06,28,3.50
2017,04,20,06,29,3.50
2017,04,20,06,30,3.50
2017,04,20,06,31,3.50
2017,04,20,06,32,3.50
2017,04,20,06,33,3.50
2017,04,20,06,34,3.50
2017,04,20,06,35,3.40
2017,04,20,06,36,3.40
2017,04,20,06,37,3.40
2017,04,20,06,38,3.40
2017,04,20,06,39,3.40
2017,04,20,06,40,3.40
2017,04,20,06,41,3.40
2017,04,20,06,42,3.40
2017,04,20,06,43,3.40
2017,04,20,06,44,3.50
2017,04,20,06,45,3.50
2017,04,20,06,46,3.50
2017,04,20,06,47,3.60
2017,04,20,06,48,3.60
2017,04,20,06,49,3.60
2017,04,20,06,50,3.60
2017,04,20,06,51,3.60
2017,04,20,06,52,3.70
2017,04,20,06,53,3.70
2017,04,20,06,54,3.70
2017,04,20,06,55,3.70
2017,04,20,06,56,3.70
2017,04,20,06,57,3.80
2017,04,20,06,58,3.80
2017,04,20,06,59,3.80
2017,04,20,07,00,3.80
2017,04,20,07,01,3.80
2017,04,20,07,02,3.90
2017,04,20,07,03,3.90
2017,04,20,07,04,3.90
2017,04,20,07,05,3.90
2017,04,20,07,06,3.90
2017,04,20,07,07,3.90
2017,04,20,07,08,4.00
2017,04,20,07,09,4.00
2017,04,20,07,10,4.00
2017,04,20,07,11,4.10
2017,04,20,07,12,4.10
2017,04,20,07,13,4.10
2017,04,20,07,14,4.10
2017,04,20,07,15,4.10
2017,04,20,07,16,4.20
2017,04,20,07,17,4.20
2017,04,20,07,18,4.20
2017,04,20,07,19,4.20
2017,04,20,07,20,4.30
2017,04,20,07,21,4.30
2017,04,20,07,22,4.30
2017,04,20,07,23,4.30
2017,04,20,07,24,4.30
2017,04,20,07,25,4.40
2017,04,20,07,26,4.40
2017,04,20,07,27,4.40
2017,04,20,07,28,4.40
2017,04,20,07,29,4.40
2017,04,20,07,30,4.50
2017,04,20,07,31,4.50
2017,04,20,07,32,4.50
2017,04,20,07,33,4.50
2017,04,20,07,34,4.50
2017,04,20,07,35,4.50
2017,04,20,07,36,4.60
2017,04,20,07,37,4.60
2017,04,20,07,38,4.60
2017,04,20,07,39,4.60
2017,04,20,07,40,4.60
2017,04,20,07,41,4.70
2017,04,20,07,42,4.70
2017,04,20,07,43,4.70
2017,04,20,07,44,4.70
2017,04,20,07,45,4.80
2017,04,20,07,46,4.80
2017,04,20,07,47,4.80
2017,04,20,07,48,4.80
2017,04,20,07,49,4.80
2017,04,20,07,50,4.80
2017,04,20,07,51,4.90
2017,04,20,07,52,4.90
2017,04,20,07,53,4.90
2017,04,20,07,54,4.90
2017,04,20,07,55,4.90
2017,04,20,07,56,5.00
2017,04,20,07,57,5.00
2017,04,20,07,58,5.00
2017,04,20,07,59,5.10
2017,04,20,08,00,5.10
2017,04,20,08,01,5.10
2017,04,20,08,02,5.10
2017,04,20,08,03,5.20
2017,04,20,08,04,5.20
2017,04,20,08,05,5.20
2017,04,20,08,06,5.20
2017,04,20,08,07,5.30
2017,04,20,08,08,5.30
2017,04,20,08,09,5.30
2017,04,20,08,10,5.30
2017,04,20,08,11,5.40
2017,04,20,08,12,5.40
2017,04,20,08,13,5.40
2017,04,20,08,14,5.40
2017,04,20,08,15,5.50
2017,04,20,08,16,5.50
2017,04,20,08,17,5.50
2017,04,20,08,18,5.50
2017,04,20,08,19,5.50
2017,04,20,08,20,5.60
2017,04,20,08,21,5.60
2017,04,20,08,22,5.60
2017,04,20,08,23,5.60
2017,04,20,08,24,5.60
2017,04,20,08,25,5.70
2017,04,20,08,26,5.70
2017,04,20,08,27,5.70
2017,04,20,08,28,5.70
2017,04,20,08,29,5.70
2017,04,20,08,30,5.80
2017,04,20,08,31,5.80
2017,04,20,08,32,5.80
2017,04,20,08,33,5.90
2017,04,20,08,34,6.00
2017,04,20,08,35,6.10
2017,04,20,08,36,6.20
2017,04,20,08,37,6.30
2017,04,20,08,38,6.30
2017,04,20,08,39,6.40
2017,04,20,08,40,6.50
2017,04,20,08,41,6.60
2017,04,20,08,42,6.60
2017,04,20,08,43,6.70
2017,04,20,08,44,6.80
2017,04,20,08,45,6.80
2017,04,20,08,46,6.80
2017,04,20,08,47,6.90
2017,04,20,08,48,7.00
2017,04,20,08,49,7.00
2017,04,20,08,50,7.10
2017,04,20,08,51,7.10
2017,04,20,08,52,7.20
2017,04,20,08,53,7.30
2017,04,20,08,54,7.40
2017,04,20,08,55,7.40
2017,04,20,08,56,7.50
2017,04,20,08,57,7.50
2017,04,20,08,58,7.60
2017,04,20,08,59,7.60
2017,04,20,09,00,7.60
2017,04,20,09,01,7.60
2017,04,20,09,02,7.60
2017,04,20,09,03,7.60
2017,04,20,09,04,7.60
2017,04,20,09,05,7.60
2017,04,20,09,06,7.60
2017,04,20,09,07,7.60
2017,04,20,09,08,7.60
2017,04,20,09,09,7.60
2017,04,20,09,10,7.60
2017,04,20,09,11,7.70
2017,04,20,09,12,7.70
2017,04,20,09,13,7.80
2017,04,20,09,14,7.80
2017,04,20,09,15,7.90
2017,04,20,09,16,7.90
2017,04,20,09,17,7.90
2017,04,20,09,18,7.90
2017,04,20,09,19,7.90
2017,04,20,09,20,7.80
2017,04,20,09,21,7.80
2017,04,20,09,22,7.80
2017,04,20,09,23,7.80
2017,04,20,09,24,7.80
2017,04,20,09,25,7.80
2017,04,20,09,26,7.80
2017,04,20,09,27,7.80
2017,04,20,09,28,7.80
2017,04,20,09,29,7.80
2017,04,20,09,30,7.90
2017,04,20,09,31,7.90
2017,04,20,09,32,8.00
2017,04,20,09,33,8.00
2017,04,20,09,34,8.10
2017,04,20,09,35,8.10
2017,04,20,09,36,8.10
2017,04,20,09,37,8.10
2017,04,20,09,38,8.20
2017,04,20,09,39,8.20
2017,04,20,09,40,8.20
2017,04,20,09,41,8.30
2017,04,20,09,42,8.30
2017,04,20,09,43,8.30
2017,04,20,09,44,8.30
2017,04,20,09,45,8.30
2017,04,20,09,46,8.40
2017,04,20,09,47,8.40
2017,04,20,09,48,8.50
2017,04,20,09,49,8.50
2017,04,20,09,50,8.60
2017,04,20,09,51,8.60
2017,04,20,09,52,8.60
2017,04,20,09,53,8.60
2017,04,20,09,54,8.70
2017,04,20,09,55,8.70
2017,04,20,09,56,8.70
2017,04,20,09,57,8.80
2017,04,20,09,58,8.80
2017,04,20,09,59,8.80
2017,04,20,10,00,8.70
2017,04,20,10,01,8.70
2017,04,20,10,02,8.80
2017,04,20,10,03,8.80
2017,04,20,10,04,8.80
2017,04,20,10,05,8.80
2017,04,20,10,06,8.80
2017,04,20,10,07,8.80
2017,04,20,10,08,8.80
2017,04,20,10,09,8.80
2017,04,20,10,10,8.90
2017,04,20,10,11,8.90
2017,04,20,10,12,9.00
2017,04,20,10,13,9.00
2017,04,20,10,14,9.10
2017,04,20,10,15,9.10
2017,04,20,10,16,9.10
2017,04,20,10,17,9.10
2017,04,20,10,18,9.10
2017,04,20,10,19,9.10
2017,04,20,10,20,9.10
2017,04,20,10,21,9.10
2017,04,20,10,22,9.10
2017,04,20,10,23,9.20
2017,04,20,10,24,9.20
2017,04,20,10,25,9.20
2017,04,20,10,26,9.20
2017,04,20,10,27,9.20
2017,04,20,10,28,9.20
2017,04,20,10,29,9.30
2017,04,20,10,30,9.30
2017,04,20,10,31,9.30
2017,04,20,10,32,9.30
2017,04,20,10,33,9.30
2017,04,20,10,34,9.30
2017,04,20,10,35,9.30
2017,04,20,10,36,9.40
2017,04,20,10,37,9.40
2017,04,20,10,38,9.50
2017,04,20,10,39,9.50
2017,04,20,10,40,9.60
2017,04,20,10,41,9.60
2017,04,20,10,42,9.70
2017,04,20,10,43,9.70
2017,04,20,10,44,9.70
2017,04,20,10,45,9.70
2017,04,20,10,46,9.60
2017,04,20,10,47,9.60
2017,04,20,10,48,9.60
2017,04,20,10,49,9.60
2017,04,20,10,50,9.70
2017,04,20,10,51,9.60
2017,04,20,10,52,9.60
2017,04,20,10,53,9.60
2017,04,20,10,54,9.60
2017,04,20,10,55,9.60
2017,04,20,10,56,9.60
2017,04,20,10,57,9.60
2017,04,20,10,58,9.70
2017,04,20,10,59,9.70
2017,04,20,11,00,9.80
2017,04,20,11,01,9.80
2017,04,20,11,02,9.80
2017,04,20,11,03,9.90
2017,04,20,11,04,9.90
2017,04,20,11,05,9.90
2017,04,20,11,06,9.90
2017,04,20,11,07,9.90
2017,04,20,11,08,9.90
2017,04,20,11,09,9.90
2017,04,20,11,10,9.90
2017,04,20,11,11,9.90
2017,04,20,11,12,10.00
2017,04,20,11,13,10.10
2017,04,20,11,14,10.00
2017,04,20,11,15,10.00
2017,04,20,11,16,10.00
2017,04,20,11,17,10.10
2017,04,20,11,18,10.10
2017,04,20,11,19,10.10
2017,04,20,11,20,10.10
2017,04,20,11,21,10.10
2017,04,20,11,22,10.10
2017,04,20,11,23,10.20
2017,04,20,11,24,10.20
2017,04,20,11,25,10.20
2017,04,20,11,26,10.20
2017,04,20,11,27,10.10
2017,04,20,11,28,10.10
2017,04,20,11,29,10.10
2017,04,20,11,30,10.10
2017,04,20,11,31,10.20
2017,04,20,11,32,10.20
2017,04,20,11,33,10.20
2017,04,20,11,34,10.30
2017,04,20,11,35,10.30
2017,04,20,11,36,10.30
2017,04,20,11,37,10.30
2017,04,20,11,38,10.30
2017,04,20,11,39,10.30
2017,04,20,11,40,10.30
2017,04,20,11,41,10.30
2017,04,20,11,42,10.30
2017,04,20,11,43,10.20
2017,04,20,11,44,10.20
2017,04,20,11,45,10.20
2017,04,20,11,46,10.20
2017,04,20,11,47,10.20
2017,04,20,11,48,10.10
2017,04,20,11,49,10.10
2017,04,20,11,50,10.10
2017,04,20,11,51,10.10
2017,04,20,11,52,10.10
2017,04,20,11,53,10.10
2017,04,20,11,54,10.10
2017,04,20,11,55,10.10
2017,04,20,11,56,10.00
2017,04,20,11,57,10.10
2017,04,20,11,58,10.00
2017,04,20,11,59,10.00
2017,04,20,12,00,9.90
2017,04,20,12,01,9.90
2017,04,20,12,02,9.90
2017,04,20,12,03,9.80
2017,04,20,12,04,9.80
2017,04,20,12,05,9.80
2017,04,20,12,06,9.80
2017,04,20,12,07,9.80
2017,04,20,12,08,9.80
2017,04,20,12,09,9.80
2017,04,20,12,10,9.80
2017,04,20,12,11,9.80
2017,04,20,12,12,9.80
2017,04,20,12,13,9.80
2017,04,20,12,14,9.70
2017,04,20,12,15,9.70
2017,04,20,12,16,9.70
2017,04,20,12,17,9.70
2017,04,20,12,18,9.60
2017,04,20,12,19,9.60
2017,04,20,12,20,9.70
2017,04,20,12,21,9.70
2017,04,20,12,22,9.70
2017,04,20,12,23,9.70
2017,04,20,12,24,9.70
2017,04,20,12,25,9.70
2017,04,20,12,26,9.70
2017,04,20,12,27,9.70
2017,04,20,12,28,9.80
2017,04,20,12,29,9.80
2017,04,20,12,30,9.80
2017,04,20,12,31,9.80
2017,04,20,12,32,9.80
2017,04,20,12,33,9.80
2017,04,20,12,34,9.90
2017,04,20,12,35,10.00
2017,04,20,12,36,10.00
2017,04,20,12,37,10.10
2017,04,20,12,38,10.20
2017,04,20,12,39,10.20
2017,04,20,12,40,10.30
2017,04,20,12,41,10.30
2017,04,20,12,42,10.40
2017,04,20,12,43,10.40
2017,04,20,12,44,10.40
2017,04,20,12,45,10.50
2017,04,20,12,46,10.60
2017,04,20,12,47,10.60
2017,04,20,12,48,10.70
2017,04,20,12,49,10.80
2017,04,20,12,50,10.80
2017,04,20,12,51,10.80
2017,04,20,12,52,10.80
2017,04,20,12,53,10.80
2017,04,20,12,54,10.80
2017,04,20,12,55,10.80
2017,04,20,12,56,10.80
2017,04,20,12,57,10.80
2017,04,20,12,58,10.80
2017,04,20,12,59,10.80
2017,04,20,13,00,10.90
2017,04,20,13,01,10.90
2017,04,20,13,02,11.00
2017,04,20,13,03,11.00
2017,04,20,13,04,11.10
2017,04,20,13,05,11.20
2017,04,20,13,06,11.20
2017,04,20,13,07,11.20
2017,04,20,13,08,11.30
2017,04,20,13,09,11.30
2017,04,20,13,10,11.30
2017,04,20,13,11,11.40
2017,04,20,13,12,11.50
2017,04,20,13,13,11.60
2017,04,20,13,14,11.70
2017,04,20,13,15,11.80
2017,04,20,13,16,11.90
2017,04,20,13,17,12.00
2017,04,20,13,18,12.10
2017,04,20,13,19,12.10
2017,04,20,13,20,12.20
2017,04,20,13,21,12.20
2017,04,20,13,22,12.30
2017,04,20,13,23,12.40
2017,04,20,13,24,12.50
2017,04,20,13,25,12.60
2017,04,20,13,26,12.60
2017,04,20,13,27,12.60
2017,04,20,13,28,12.60
2017,04,20,13,29,12.60
2017,04,20,13,30,12.50
2017,04,20,13,31,12.60
2017,04,20,13,32,12.50
2017,04,20,13,33,12.50
2017,04,20,13,34,12.50
2017,04,20,13,35,12.50
2017,04,20,13,36,12.50
2017,04,20,13,37,12.40
2017,04,20,13,38,12.40
2017,04,20,13,39,12.30
2017,04,20,13,40,12.20
2017,04,20,13,41,12.20
2017,04,20,13,42,12.20
2017,04,20,13,43,12.20
2017,04,20,13,44,12.30
2017,04,20,13,45,12.30
2017,04,20,13,46,12.40
2017,04,20,13,47,12.40
2017,04,20,13,48,12.40
2017,04,20,13,49,12.40
2017,04,20,13,50,12.50
2017,04,20,13,51,12.50
2017,04,20,13,52,12.50
2017,04,20,13,53,12.50
2017,04,20,13,54,12.40
2017,04,20,13,55,12.40
2017,04,20,13,56,12.30
2017,04,20,13,57,12.30
2017,04,20,13,58,12.30
2017,04,20,13,59,12.30
2017,04,20,14,00,12.20
2017,04,20,14,01,12.20
2017,04,20,14,02,12.10
2017,04,20,14,03,12.10
2017,04,20,14,04,12.10
2017,04,20,14,05,12.10
2017,04,20,14,06,12.00
2017,04,20,14,07,12.00
2017,04,20,14,08,12.00
2017,04,20,14,09,11.90
2017,04,20,14,10,12.00
2017,04,20,14,11,12.00
2017,04,20,14,12,12.00
2017,04,20,14,13,12.10
2017,04,20,14,14,12.10
2017,04,20,14,15,12.10
2017,04,20,14,16,12.10
2017,04,20,14,17,12.10
2017,04,20,14,18,12.20
2017,04,20,14,19,12.20
2017,04,20,14,20,12.20
2017,04,20,14,21,12.20
2017,04,20,14,22,12.30
2017,04,20,14,23,12.30
2017,04,20,14,24,12.30
2017,04,20,14,25,12.40
2017,04,20,14,26,12.40
2017,04,20,14,27,12.50
2017,04,20,14,28,12.50
2017,04,20,14,29,12.60
2017,04,20,14,30,12.50
2017,04,20,14,31,12.50
2017,04,20,14,32,12.40
2017,04,20,14,33,12.30
2017,04,20,14,34,12.30
2017,04,20,14,35,12.20
2017,04,20,14,36,12.10
2017,04,20,14,37,12.10
2017,04,20,14,38,12.10
2017,04,20,14,39,12.10
2017,04,20,14,40,12.10
2017,04,20,14,41,12.00
2017,04,20,14,42,12.00
2017,04,20,14,43,12.00
2017,04,20,14,44,12.00
2017,04,20,14,45,11.90
2017,04,20,14,46,11.90
2017,04,20,14,47,11.90
2017,04,20,14,48,11.90
2017,04,20,14,49,11.90
2017,04,20,14,50,11.90
2017,04,20,14,51,11.90
2017,04,20,14,52,11.90
2017,04,20,14,53,12.00
2017,04,20,14,54,12.10
2017,04,20,14,55,12.20
2017,04,20,14,56,12.20
2017,04,20,14,57,12.20
2017,04,20,14,58,12.20
2017,04,20,14,59,12.20
2017,04,20,15,00,12.20
2017,04,20,15,01,12.30
2017,04,20,15,02,12.30
2017,04,20,15,03,12.30
2017,04,20,15,04,12.30
2017,04,20,15,05,12.40
2017,04,20,15,06,12.50
2017,04,20,15,07,12.60
2017,04,20,15,08,12.70
2017,04,20,15,09,12.70
2017,04,20,15,10,12.70
2017,04,20,15,11,12.70
2017,04,20,15,12,12.70
2017,04,20,15,13,12.70
2017,04,20,15,14,12.70
2017,04,20,15,15,12.60
2017,04,20,15,16,12.50
2017,04,20,15,17,12.50
2017,04,20,15,18,12.40
2017,04,20,15,19,12.30
2017,04,20,15,20,12.20
2017,04,20,15,21,12.20
2017,04,20,15,22,12.20
2017,04,20,15,23,12.20
2017,04,20,15,24,12.20
2017,04,20,15,25,12.10
2017,04,20,15,26,12.10
2017,04,20,15,27,12.10
2017,04,20,15,28,12.00
2017,04,20,15,29,12.00
2017,04,20,15,30,11.90
2017,04,20,15,31,11.90
2017,04,20,15,32,11.80
2017,04,20,15,33,11.80
2017,04,20,15,34,11.80
2017,04,20,15,35,11.80
2017,04,20,15,36,11.80
2017,04,20,15,37,11.90
2017,04,20,15,38,11.90
2017,04,20,15,39,11.90
2017,04,20,15,40,11.90
2017,04,20,15,41,11.90
2017,04,20,15,42,11.90
2017,04,20,15,43,11.80
2017,04,20,15,44,11.80
2017,04,20,15,45,11.80
2017,04,20,15,46,11.80
2017,04,20,15,47,11.80
2017,04,20,15,48,11.70
2017,04,20,15,49,11.70
2017,04,20,15,50,11.70
2017,04,20,15,51,11.70
2017,04,20,15,52,11.80
2017,04,20,15,53,11.80
2017,04,20,15,54,11.80
2017,04,20,15,55,11.90
2017,04,20,15,56,12.00
2017,04,20,15,57,12.10
2017,04,20,15,58,12.20
2017,04,20,15,59,12.40
2017,04,20,16,00,12.50
2017,04,20,16,01,12.70
2017,04,20,16,02,12.70
2017,04,20,16,03,12.80
2017,04,20,16,04,12.90
2017,04,20,16,05,13.00
2017,04,20,16,06,13.00
2017,04,20,16,07,13.00
2017,04,20,16,08,13.00
2017,04,20,16,09,12.90
2017,04,20,16,10,12.90
2017,04,20,16,11,12.80
2017,04,20,16,12,12.80
2017,04,20,16,13,12.70
2017,04,20,16,14,12.70
2017,04,20,16,15,12.70
2017,04,20,16,16,12.70
2017,04,20,16,17,12.60
2017,04,20,16,18,12.60
2017,04,20,16,19,12.60
2017,04,20,16,20,12.50
2017,04,20,16,21,12.50
2017,04,20,16,22,12.50
2017,04,20,16,23,12.50
2017,04,20,16,24,12.50
2017,04,20,16,25,12.50
2017,04,20,16,26,12.60
2017,04,20,16,27,12.70
2017,04,20,16,28,12.80
2017,04,20,16,29,12.90
2017,04,20,16,30,12.90
2017,04,20,16,31,12.90
2017,04,20,16,32,13.00
2017,04,20,16,33,13.10
2017,04,20,16,34,13.20
2017,04,20,16,35,13.30
2017,04,20,16,36,13.40
2017,04,20,16,37,13.40
2017,04,20,16,38,13.50
2017,04,20,16,39,13.60
2017,04,20,16,40,13.70
2017,04,20,16,41,13.80
2017,04,20,16,42,13.80
2017,04,20,16,43,13.90
2017,04,20,16,44,13.90
2017,04,20,16,45,13.80
2017,04,20,16,46,13.80
2017,04,20,16,47,13.80
2017,04,20,16,48,13.90
2017,04,20,16,49,14.00
2017,04,20,16,50,14.00
2017,04,20,16,51,14.10
2017,04,20,16,52,14.10
2017,04,20,16,53,14.00
2017,04,20,16,54,14.10
2017,04,20,16,55,14.10
2017,04,20,16,56,14.10
2017,04,20,16,57,14.20
2017,04,20,16,58,14.20
2017,04,20,16,59,14.30
2017,04,20,17,00,14.30
2017,04,20,17,01,14.40
2017,04,20,17,02,14.40
2017,04,20,17,03,14.40
2017,04,20,17,04,14.50
2017,04,20,17,05,14.60
2017,04,20,17,06,14.60
2017,04,20,17,07,14.70
2017,04,20,17,08,14.70
2017,04,20,17,09,14.70
2017,04,20,17,10,14.80
2017,04,20,17,11,14.80
2017,04,20,17,12,14.80
2017,04,20,17,13,14.80
2017,04,20,17,14,14.80
2017,04,20,17,15,14.70
2017,04,20,17,16,14.70
2017,04,20,17,17,14.60
2017,04,20,17,18,14.60
2017,04,20,17,19,14.60
2017,04,20,17,20,14.60
2017,04,20,17,21,14.60
2017,04,20,17,22,14.70
2017,04,20,17,23,14.70
2017,04,20,17,24,14.80
2017,04,20,17,25,14.80
2017,04,20,17,26,14.70
2017,04,20,17,27,14.60
2017,04,20,17,28,14.60
2017,04,20,17,29,14.60
2017,04,20,17,30,14.60
2017,04,20,17,31,14.60
2017,04,20,17,32,14.60
2017,04,20,17,33,14.60
2017,04,20,17,34,14.60
2017,04,20,17,35,14.60
2017,04,20,17,36,14.60
2017,04,20,17,37,14.60
2017,04,20,17,38,14.60
2017,04,20,17,39,14.60
2017,04,20,17,40,14.70
2017,04,20,17,41,14.70
2017,04,20,17,42,14.80
2017,04,20,17,43,14.80
2017,04,20,17,44,14.70
2017,04,20,17,45,14.70
2017,04,20,17,46,14.60
2017,04,20,17,47,14.60
2017,04,20,17,48,14.60
2017,04,20,17,49,14.60
2017,04,20,17,50,14.60